Time,TemperatureF,DewpointF,PressureIn,WindDirection,WindDirectionDegrees,WindSpeedMPH,WindSpeedGustMPH,Humidity,HourlyPrecipIn,Conditions,Clouds,dailyrainin,SoftwareType,DateUTC
2013-04-21 00:07:00,32.7,18.0,30.41,SE,130,2.0,-999.0,54,-99.99,,,0.00,weatherlink.com 1.10,2013-04-21 05:07:00,
2013-04-21 00:22:00,32.3,18.0,30.42,SE,132,2.0,-999.0,57,-99.99,,,0.00,weatherlink.com 1.10,2013-04-21 05:22:00,
2013-04-21 00:37:00,31.6,20.0,30.43,SE,142,0.0,-999.0,62,-99.99,,,0.00,weatherlink.com 1.10,2013-04-21 05:37:00,
2013-04-21 00:52:00,30.8,21.0,30.43,SE,138,5.0,-999.0,66,-99.99,,,0.00,weatherlink.com 1.10,2013-04-21 05:52:00,
2013-04-21 01:07:00,30.7,21.0,30.43,SE,146,2.0,-999.0,68,-99.99,,,0.00,weatherlink.com 1.10,2013-04-21 06:07:00,
2013-04-21 01:22:00,30.6,22.0,30.43,SE,143,4.0,-999.0,69,-99.99,,,0.00,weatherlink.com 1.10,2013-04-21 06:22:00,
2013-04-21 01:37:00,30.5,22.0,30.43,SSE,149,0.0,-999.0,70,-99.99,,,0.00,weatherlink.com 1.10,2013-04-21 06:37:00,
2013-04-21 01:52:00,30.4,22.0,30.44,SE,138,1.0,-999.0,72,-99.99,,,0.00,weatherlink.com 1.10,2013-04-21 06:52:00,
2013-04-21 02:07:00,30.3,23.0,30.44,SE,137,2.0,-999.0,74,-99.99,,,0.00,weatherlink.com 1.10,2013-04-21 07:07:00,
2013-04-21 02:22:00,30.3,23.0,30.44,SE,137,0.0,-999.0,75,-99.99,,,0.00,weatherlink.com 1.10,2013-04-21 07:22:00,
2013-04-21 02:37:00,30.2,24.0,30.44,SE,137,0.0,-999.0,76,-99.99,,,0.00,weatherlink.com 1.10,2013-04-21 07:37:00,
2013-04-21 02:52:00,30.2,24.0,30.44,SE,137,0.0,-999.0,77,-99.99,,,0.00,weatherlink.com 1.10,2013-04-21 07:52:00,
2013-04-21 03:07:00,30.1,24.0,30.44,SE,138,0.0,-999.0,78,-99.99,,,0.00,weatherlink.com 1.10,2013-04-21 08:07:00,
2013-04-21 03:22:00,30.1,24.0,30.44,SE,138,2.0,-999.0,78,-99.99,,,0.00,weatherlink.com 1.10,2013-04-21 08:22:00,
2013-04-21 03:37:00,30.3,25.0,30.44,SE,139,4.0,-999.0,79,-99.99,,,0.00,weatherlink.com 1.10,2013-04-21 08:37:00,
2013-04-21 03:52:00,30.5,25.0,30.45,SE,142,1.0,-999.0,79,-99.99,,,0.00,weatherlink.com 1.10,2013-04-21 08:52:00,
2013-04-21 04:07:00,30.4,25.0,30.46,SE,142,0.0,-999.0,79,-99.99,,,0.00,weatherlink.com 1.10,2013-04-21 09:07:00,
2013-04-21 04:22:00,30.5,25.0,30.46,SE,144,1.0,-999.0,79,-99.99,,,0.00,weatherlink.com 1.10,2013-04-21 09:22:00,
2013-04-21 04:37:00,30.8,25.0,30.46,SE,145,0.0,-999.0,78,-99.99,,,0.00,weatherlink.com 1.10,2013-04-21 09:37:00,
2013-04-21 04:52:00,30.9,25.0,30.46,SE,146,0.0,-999.0,78,-99.99,,,0.00,weatherlink.com 1.10,2013-04-21 09:52:00,
2013-04-21 05:07:00,31.1,25.0,30.46,South,173,0.0,-999.0,77,-99.99,,,0.00,weatherlink.com 1.10,2013-04-21 10:07:00,
2013-04-21 05:22:00,31.2,25.0,30.46,ESE,117,4.0,-999.0,77,-99.99,,,0.00,weatherlink.com 1.10,2013-04-21 10:22:00,
2013-04-21 05:37:00,31.3,25.0,30.46,SE,146,1.0,-999.0,77,-99.99,,,0.00,weatherlink.com 1.10,2013-04-21 10:37:00,
2013-04-21 05:52:00,31.3,25.0,30.47,South,190,0.0,-999.0,77,-99.99,,,0.00,weatherlink.com 1.10,2013-04-21 10:52:00,
2013-04-21 06:07:00,31.3,25.0,30.48,SSE,152,0.0,-999.0,78,-99.99,,,0.00,weatherlink.com 1.10,2013-04-21 11:07:00,
2013-04-21 06:22:00,31.5,25.0,30.49,SSE,157,2.0,-999.0,77,-99.99,,,0.00,weatherlink.com 1.10,2013-04-21 11:22:00,
2013-04-21 06:37:00,32.1,25.0,30.50,South,188,2.0,-999.0,75,-99.99,,,0.00,weatherlink.com 1.10,2013-04-21 11:37:00,
2013-04-21 06:53:00,32.3,25.0,30.51,SSW,210,3.0,-999.0,75,-99.99,,,0.00,weatherlink.com 1.10,2013-04-21 11:53:00,
2013-04-21 07:08:00,32.6,25.0,30.51,South,190,3.0,-999.0,74,-99.99,,,0.00,weatherlink.com 1.10,2013-04-21 12:08:00,
2013-04-21 07:23:00,32.8,25.0,30.51,South,180,1.0,-999.0,74,-99.99,,,0.00,weatherlink.com 1.10,2013-04-21 12:23:00,
2013-04-21 07:38:00,32.9,25.0,30.52,SSW,194,6.0,-999.0,74,-99.99,,,0.00,weatherlink.com 1.10,2013-04-21 12:38:00,
2013-04-21 07:53:00,32.9,26.0,30.52,South,181,2.0,-999.0,75,-99.99,,,0.00,weatherlink.com 1.10,2013-04-21 12:53:00,
2013-04-21 08:08:00,33.0,27.0,30.52,SW,223,7.0,-999.0,77,-99.99,,,0.00,weatherlink.com 1.10,2013-04-21 13:08:00,
2013-04-21 08:23:00,33.0,27.0,30.52,South,184,3.0,-999.0,79,-99.99,,,0.00,weatherlink.com 1.10,2013-04-21 13:23:00,
2013-04-21 08:38:00,33.2,27.0,30.52,South,171,1.0,-999.0,79,-99.99,,,0.00,weatherlink.com 1.10,2013-04-21 13:38:00,
2013-04-21 08:53:00,32.4,28.0,30.51,South,171,7.0,-999.0,84,-99.99,,,0.00,weatherlink.com 1.10,2013-04-21 13:53:00,
2013-04-21 09:08:00,31.8,29.0,30.52,SE,132,4.0,-999.0,88,-99.99,,,0.00,weatherlink.com 1.10,2013-04-21 14:08:00,
2013-04-21 09:23:00,32.2,30.0,30.51,SE,142,6.0,-999.0,90,-99.99,,,0.00,weatherlink.com 1.10,2013-04-21 14:23:00,
2013-04-21 09:38:00,33.1,30.0,30.51,SE,130,5.0,-999.0,89,-99.99,,,0.00,weatherlink.com 1.10,2013-04-21 14:38:00,
2013-04-21 09:53:00,34.8,30.0,30.50,SSW,198,8.0,-999.0,81,-99.99,,,0.00,weatherlink.com 1.10,2013-04-21 14:53:00,
2013-04-21 10:08:00,35.3,29.0,30.50,SSE,148,12.0,-999.0,77,-99.99,,,0.00,weatherlink.com 1.10,2013-04-21 15:08:00,
2013-04-21 10:23:00,34.2,29.0,30.51,South,187,9.0,-999.0,82,-99.99,,,0.00,weatherlink.com 1.10,2013-04-21 15:23:00,
2013-04-21 10:38:00,33.5,30.0,30.50,SSW,201,5.0,-999.0,87,-99.99,,,0.00,weatherlink.com 1.10,2013-04-21 15:38:00,
2013-04-21 10:53:00,32.8,30.0,30.50,SSW,197,5.0,-999.0,89,-99.99,,,0.00,weatherlink.com 1.10,2013-04-21 15:53:00,
2013-04-21 11:08:00,32.4,30.0,30.49,South,175,4.0,-999.0,91,-99.99,,,0.00,weatherlink.com 1.10,2013-04-21 16:08:00,
2013-04-21 11:23:00,32.1,30.0,30.49,South,188,5.0,-999.0,92,-99.99,,,0.00,weatherlink.com 1.10,2013-04-21 16:23:00,
2013-04-21 11:38:00,32.1,30.0,30.48,SSW,197,3.0,-999.0,93,-99.99,,,0.00,weatherlink.com 1.10,2013-04-21 16:38:00,
2013-04-21 11:53:00,32.0,30.0,30.47,SSE,167,4.0,-999.0,93,-99.99,,,0.00,weatherlink.com 1.10,2013-04-21 16:53:00,
2013-04-21 12:08:00,32.1,31.0,30.46,SE,130,11.0,-999.0,94,-99.99,,,0.00,weatherlink.com 1.10,2013-04-21 17:08:00,
2013-04-21 12:23:00,32.1,31.0,30.45,SE,126,5.0,-999.0,94,-99.99,,,0.00,weatherlink.com 1.10,2013-04-21 17:23:00,
2013-04-21 12:38:00,32.5,31.0,30.43,SE,138,4.0,-999.0,94,-99.99,,,0.00,weatherlink.com 1.10,2013-04-21 17:38:00,
2013-04-21 12:53:00,34.2,33.0,30.42,SE,126,5.0,-999.0,94,-99.99,,,0.00,weatherlink.com 1.10,2013-04-21 17:53:00,
2013-04-21 13:08:00,35.7,34.0,30.41,SE,132,13.0,-999.0,92,-99.99,,,0.00,weatherlink.com 1.10,2013-04-21 18:08:00,
2013-04-21 13:23:00,37.7,35.0,30.40,South,178,2.0,-999.0,90,-99.99,,,0.00,weatherlink.com 1.10,2013-04-21 18:23:00,
2013-04-21 13:38:00,38.8,35.0,30.39,ESE,121,12.0,-999.0,86,-99.99,,,0.00,weatherlink.com 1.10,2013-04-21 18:38:00,
2013-04-21 13:53:00,39.8,35.0,30.39,SE,141,2.0,-999.0,83,-99.99,,,0.00,weatherlink.com 1.10,2013-04-21 18:53:00,
2013-04-21 14:08:00,40.2,34.0,30.39,SE,144,2.0,-999.0,78,-99.99,,,0.00,weatherlink.com 1.10,2013-04-21 19:08:00,
2013-04-21 14:23:00,41.2,33.0,30.38,SSE,167,4.0,-999.0,73,-99.99,,,0.00,weatherlink.com 1.10,2013-04-21 19:23:00,
2013-04-21 14:38:00,42.2,32.0,30.36,SSW,211,2.0,-999.0,67,-99.99,,,0.00,weatherlink.com 1.10,2013-04-21 19:38:00,
2013-04-21 14:53:00,43.2,31.0,30.36,South,186,5.0,-999.0,63,-99.99,,,0.00,weatherlink.com 1.10,2013-04-21 19:53:00,
2013-04-21 15:09:00,44.2,30.0,30.35,SSW,202,8.0,-999.0,59,-99.99,,,0.00,weatherlink.com 1.10,2013-04-21 20:09:00,
2013-04-21 15:24:00,45.5,31.0,30.34,SSW,193,4.0,-999.0,57,-99.99,,,0.00,weatherlink.com 1.10,2013-04-21 20:24:00,
2013-04-21 15:39:00,46.2,30.0,30.33,South,191,7.0,-999.0,53,-99.99,,,0.00,weatherlink.com 1.10,2013-04-21 20:39:00,
2013-04-21 15:54:00,46.7,31.0,30.32,South,173,10.0,-999.0,54,-99.99,,,0.00,weatherlink.com 1.10,2013-04-21 20:54:00,
2013-04-21 16:09:00,47.1,31.0,30.32,SSW,202,10.0,-999.0,54,-99.99,,,0.00,weatherlink.com 1.10,2013-04-21 21:09:00,
2013-04-21 16:24:00,47.6,31.0,30.31,South,190,6.0,-999.0,53,-99.99,,,0.00,weatherlink.com 1.10,2013-04-21 21:24:00,
2013-04-21 16:39:00,49.1,32.0,30.31,SW,217,4.0,-999.0,52,-99.99,,,0.00,weatherlink.com 1.10,2013-04-21 21:39:00,
2013-04-21 16:54:00,48.5,30.0,30.30,South,178,13.0,-999.0,50,-99.99,,,0.00,weatherlink.com 1.10,2013-04-21 21:54:00,
2013-04-21 17:09:00,49.1,32.0,30.30,SSE,166,5.0,-999.0,52,-99.99,,,0.00,weatherlink.com 1.10,2013-04-21 22:09:00,
2013-04-21 17:24:00,49.9,32.0,30.29,SW,223,13.0,-999.0,50,-99.99,,,0.00,weatherlink.com 1.10,2013-04-21 22:24:00,
2013-04-21 17:39:00,49.8,32.0,30.29,SSW,203,8.0,-999.0,50,-99.99,,,0.00,weatherlink.com 1.10,2013-04-21 22:39:00,
2013-04-21 17:54:00,49.0,32.0,30.28,South,187,17.0,-999.0,52,-99.99,,,0.00,weatherlink.com 1.10,2013-04-21 22:54:00,
2013-04-21 18:09:00,49.1,32.0,30.28,South,182,7.0,-999.0,53,-99.99,,,0.00,weatherlink.com 1.10,2013-04-21 23:09:00,
2013-04-21 18:24:00,49.1,32.0,30.27,SSE,166,7.0,-999.0,53,-99.99,,,0.00,weatherlink.com 1.10,2013-04-21 23:24:00,
2013-04-21 18:39:00,49.1,33.0,30.27,SW,227,4.0,-999.0,54,-99.99,,,0.00,weatherlink.com 1.10,2013-04-21 23:39:00,
2013-04-21 18:54:00,49.2,33.0,30.26,South,178,10.0,-999.0,55,-99.99,,,0.00,weatherlink.com 1.10,2013-04-21 23:54:00,
2013-04-21 19:09:00,48.7,33.0,30.26,SW,222,6.0,-999.0,56,-99.99,,,0.00,weatherlink.com 1.10,2013-04-22 00:09:00,
2013-04-21 19:24:00,48.3,33.0,30.26,SSW,207,6.0,-999.0,57,-99.99,,,0.00,weatherlink.com 1.10,2013-04-22 00:24:00,
2013-04-21 19:39:00,47.8,33.0,30.26,SSW,208,2.0,-999.0,58,-99.99,,,0.00,weatherlink.com 1.10,2013-04-22 00:39:00,
2013-04-21 19:54:00,47.4,34.0,30.26,South,190,5.0,-999.0,59,-99.99,,,0.00,weatherlink.com 1.10,2013-04-22 00:54:00,
2013-04-21 20:09:00,47.1,34.0,30.26,South,178,7.0,-999.0,60,-99.99,,,0.00,weatherlink.com 1.10,2013-04-22 01:09:00,
2013-04-21 20:24:00,46.7,34.0,30.26,South,174,7.0,-999.0,62,-99.99,,,0.00,weatherlink.com 1.10,2013-04-22 01:24:00,
2013-04-21 20:39:00,46.8,35.0,30.26,SW,221,10.0,-999.0,63,-99.99,,,0.00,weatherlink.com 1.10,2013-04-22 01:39:00,
2013-04-21 20:54:00,46.5,35.0,30.26,WSW,244,5.0,-999.0,64,-99.99,,,0.00,weatherlink.com 1.10,2013-04-22 01:54:00,
2013-04-21 21:09:00,46.1,35.0,30.26,South,190,8.0,-999.0,65,-99.99,,,0.00,weatherlink.com 1.10,2013-04-22 02:09:00,
2013-04-21 21:24:00,46.0,35.0,30.26,SW,225,10.0,-999.0,66,-99.99,,,0.00,weatherlink.com 1.10,2013-04-22 02:24:00,
2013-04-21 21:39:00,46.1,35.0,30.26,SSW,192,5.0,-999.0,66,-99.99,,,0.00,weatherlink.com 1.10,2013-04-22 02:39:00,
2013-04-21 21:54:00,46.1,36.0,30.26,SW,228,7.0,-999.0,67,-99.99,,,0.00,weatherlink.com 1.10,2013-04-22 02:54:00,
2013-04-21 22:09:00,45.8,35.0,30.26,SSW,207,8.0,-999.0,67,-99.99,,,0.00,weatherlink.com 1.10,2013-04-22 03:09:00,
2013-04-21 22:24:00,45.8,36.0,30.26,SW,216,8.0,-999.0,68,-99.99,,,0.00,weatherlink.com 1.10,2013-04-22 03:24:00,
2013-04-21 22:39:00,46.2,36.0,30.26,SW,221,4.0,-999.0,67,-99.99,,,0.00,weatherlink.com 1.10,2013-04-22 03:39:00,
2013-04-21 22:54:00,46.2,36.0,30.25,SSW,202,11.0,-999.0,67,-99.99,,,0.00,weatherlink.com 1.10,2013-04-22 03:54:00,
2013-04-21 23:09:00,46.3,36.0,30.25,South,176,11.0,-999.0,67,-99.99,,,0.00,weatherlink.com 1.10,2013-04-22 04:09:00,
2013-04-21 23:24:00,46.5,36.0,30.25,SSW,208,14.0,-999.0,66,-99.99,,,0.00,weatherlink.com 1.10,2013-04-22 04:24:00,
2013-04-21 23:39:00,46.6,36.0,30.25,SSW,193,9.0,-999.0,66,-99.99,,,0.00,weatherlink.com 1.10,2013-04-22 04:39:00,
2013-04-21 23:54:00,46.5,36.0,30.24,SSW,196,8.0,-999.0,66,-99.99,,,0.00,weatherlink.com 1.10,2013-04-22 04:54:00,